sat.trackr.live / text

‹ back to catalog

QIANFAN-12

NORAD 60390 · 2024-140M

PAYLOAD ACTIVE UNKNOWN

§ Identity

Operator
Country
PRC
Launch date
2024-08-06
Launch site
TAISC
Launch vehicle
Mass (kg)
RCS (m²)

External: N2YO · Heavens-Above · Gunter

§ Orbital elements

Epoch: 2026-09-22T22:13:00.767712Z

Period
106.59 min
Inclination
88.9647°
Eccentricity
0.0015242
Mean motion
13.51023767 rev/d
Perigee alt
1,057.1 km
Apogee alt
1,079.8 km
Semi-major
7,446.6 km
B*
4.2470e-5
RAAN
269.7599°
Arg perigee
102.9291°
Mean anomaly
257.3564°
Rev number
10,561

§ Raw data

QIANFAN-121 60390U 24140M   26265.92570333  .00000040  00000+0  42470-4 0  99962 60390  88.9647 269.7599 0015242 102.9291 257.3564 13.51023767105617

JSON: /api/v1/satellites/60390 · /tle

For live sub-satellite position, see the globe view (requires WebGL).

§ Visibility from observer

Set your observer location to see the next 7 days of passes ≥ 10°. The values pass through the URL so the page stays shareable.

No JS? Fill the form by hand. The geolocation button needs JavaScript.